Home   Weather   Melle   Past weeks

Flag for Germany Past Weather in Melle, Lower Saxony, Germany — Yesterday and Last 2 Weeks

Now
52 °F

Passing clouds.


Feels Like: 51 °F
Forecast: 51 / 67 °F
Wind: 5 mph from Southeast

Location: Muenster / Osnabrueck

Current Time: Sep 25, 2016 at 5:45:03 AM

Latest Report: Sep 25, 2016 at 5:20 AM


Visibility: N/A

Pressure: 30.09 "Hg

Humidity: 82%

Dew Point: 46 °F

Location of MelleLocation

Past Weather in Melle — Graph

°F

Melle Temperature Yesterday

Maximum temperature yesterday: 75 °F (at 3:50 PM)
Minimum temperature yesterday: 43 °F (at 4:20 AM)
Average temperature yesterday: 57 °F

High & Low Weather Summary for the Past Weeks

 TemperatureHumidityPressure
High91 °F (Sep 13, 3:50 PM)100% (Sep 10, 4:20 AM)30.30 "Hg (Sep 10, 4:20 AM)
Low43 °F (Sep 21, 5:20 AM)28% (Sep 13, 4:50 PM)29.83 "Hg (Sep 15, 3:20 PM)
Average64 °F69%30.04 "Hg
* Reported Sep 10 4:20 AM — Sep 25 4:20 AM, Melle, Weather by CustomWeather, © 2016

Note: Actual official high and low records may vary slightly from our data, if they occured in-between our weather recording intervals... More about our weather records

Advertising

Melle Weather History for the Previous 24 Hours

Scroll right to see more
 ConditionsComfort  
Time TempWeatherWind HumidityBarometerVisibility
4:20 AM
Sun, Sep 25
54 °FPassing clouds.5 mph77%30.09 "HgN/A
3:50 AM54 °FPassing clouds.3 mph82%30.09 "HgN/A
3:20 AM52 °FClear.2 mph82%30.09 "Hg10 mi
2:50 AM54 °FClear.2 mph82%30.12 "Hg10 mi
2:20 AM54 °FPassing clouds.5 mph82%30.12 "HgN/A
1:50 AM54 °FClear.2 mph82%30.12 "Hg10 mi
1:20 AM54 °FClear.2 mph82%30.12 "Hg10 mi
12:50 AM54 °FPassing clouds.3 mph82%30.12 "HgN/A
12:20 AM55 °FPassing clouds.3 mph77%30.12 "HgN/A
11:50 PM
Sat, Sep 24
57 °FPassing clouds.3 mph72%30.15 "HgN/A
11:20 PM59 °FPassing clouds.3 mph72%30.15 "HgN/A
10:50 PM59 °FPassing clouds.5 mph72%30.15 "HgN/A
10:20 PM59 °FPassing clouds.5 mph72%30.15 "HgN/A
9:50 PM55 °FClear.2 mph82%30.15 "Hg10 mi
9:20 PM54 °FClear.2 mph88%30.15 "Hg10 mi
8:50 PM55 °FClear.No wind88%30.15 "Hg10 mi
8:20 PM57 °FClear.2 mph82%30.15 "Hg10 mi
7:50 PM59 °FClear.1 mph77%30.15 "Hg10 mi
7:20 PM61 °FSunny.2 mph72%30.15 "Hg10 mi
6:50 PM66 °FSunny.2 mph64%30.15 "Hg10 mi
6:20 PM72 °FPassing clouds.3 mph47%30.15 "HgN/A
5:50 PM73 °FPassing clouds.5 mph38%30.15 "HgN/A
5:20 PM73 °FPassing clouds.6 mph38%30.18 "HgN/A
4:50 PM73 °FPassing clouds.6 mph38%30.18 "HgN/A
4:20 PM73 °FSunny.3 mph41%30.18 "Hg10 mi
3:50 PM75 °FPassing clouds.6 mph39%30.21 "HgN/A
3:20 PM72 °FPassing clouds.6 mph44%30.21 "HgN/A
2:50 PM73 °FPassing clouds.9 mph41%30.21 "HgN/A
2:20 PM72 °FPassing clouds.12 mph44%30.21 "HgN/A
1:50 PM73 °FPassing clouds.9 mph47%30.24 "HgN/A
1:20 PM72 °FScattered clouds.10 mph47%30.24 "HgN/A
12:50 PM70 °FPassing clouds.7 mph57%30.24 "HgN/A
12:20 PM68 °FPassing clouds.7 mph60%30.24 "HgN/A
11:50 AM64 °FPassing clouds.7 mph68%30.27 "HgN/A
11:20 AM63 °FPassing clouds.7 mph68%30.27 "HgN/A
10:50 AM59 °FPassing clouds.6 mph77%30.27 "HgN/A
10:20 AM57 °FPassing clouds.5 mph77%30.27 "HgN/A
9:50 AM54 °FPassing clouds.3 mph88%30.27 "HgN/A
9:20 AM52 °FPassing clouds.3 mph88%30.27 "HgN/A
8:50 AM50 °FPassing clouds.3 mph94%30.27 "HgN/A
8:20 AM48 °FPassing clouds.3 mph100%30.27 "HgN/A
7:50 AM48 °FSunny.2 mph94%30.27 "Hg10 mi
7:20 AM46 °FFog.2 mph100%30.27 "HgN/A
6:50 AM46 °FFog.3 mph93%30.27 "HgN/A
6:20 AM45 °FFog.1 mph93%30.27 "HgN/A
5:50 AM45 °FFog.1 mph100%30.27 "HgN/A
5:20 AM45 °FFog.1 mph93%30.27 "HgN/A
Weather by CustomWeather, © 2016

See weather overviewHow to use our weather pages